K7WBM Weather Reports


Display with metric or nautical units.
time (UTC)temp
F
wind
direction
speed
MPH
gust
MPH
rain 1hr
in
rain 24hr
in
rain mn
in
humidity
%
barometer
mb
20260905024540 66 0 0.0 2.0 0.00 0.00 0.00 41 1011.0
20260905023046 68 305 1.0 11.0 0.00 0.00 0.00 39 1010.9
20260905021545 68 0 2.0 9.0 0.00 0.00 0.00 38 1010.7
20260905020049 69 0 2.0 9.0 0.00 0.00 0.00 37 1010.7
20260905014543 69 296 3.0 10.0 0.00 0.00 0.00 37 1010.5
20260905013050 70 351 3.0 8.0 0.00 0.00 0.00 37 1010.5
20260905011623 70 326 3.0 10.0 0.00 0.00 0.00 36 1010.4
20260905010042 71 337 2.0 11.0 0.00 0.00 0.00 37 1010.3
20260905004544 72 316 4.0 10.0 0.00 0.00 0.00 35 1010.1
20260905003043 74 323 3.0 10.0 0.00 0.00 0.00 32 1009.9
20260905001552 75 325 3.0 10.0 0.00 0.00 0.00 31 1009.9
20260905000044 74 316 3.0 10.0 0.00 0.00 0.00 33 1009.7
20260904234541 73 319 2.0 11.0 0.00 0.00 0.00 34 1009.9
20260904233043 74 327 1.0 11.0 0.00 0.00 0.00 34 1009.7
20260904231543 75 342 2.0 10.0 0.00 0.00 0.00 34 1009.8
20260904230042 74 31 4.0 11.0 0.00 0.00 0.00 37 1009.8
20260904224547 76 335 1.0 8.0 0.00 0.00 0.00 35 1009.9
20260904223044 75 319 3.0 8.0 0.00 0.00 0.00 34 1009.8
20260904221545 75 340 4.0 13.0 0.00 0.00 0.00 35 1009.7
20260904220043 76 265 1.0 9.0 0.00 0.00 0.00 34 1009.7
20260904214540 74 11 3.0 10.0 0.00 0.00 0.00 37 1009.7
20260904213044 73 283 2.0 6.0 0.00 0.00 0.00 37 1009.9
20260904211543 72 0 0.0 9.0 0.00 0.00 0.00 41 1010.1
20260904210046 73 17 4.0 10.0 0.00 0.00 0.00 37 1010.0
20260904204544 73 0 1.0 5.0 0.00 0.00 0.00 40 1009.9
20260904203042 74 310 4.0 9.0 0.00 0.00 0.00 36 1009.9
20260904201546 74 207 0.0 7.0 0.00 0.00 0.00 38 1009.9
20260904200044 73 313 2.0 8.0 0.00 0.00 0.00 39 1009.9
20260904194601 72 306 3.0 10.0 0.00 0.00 0.00 39 1010.0
20260904193041 71 256 1.0 11.0 0.00 0.00 0.00 40 1010.2
20260904191543 71 0 2.0 11.0 0.00 0.00 0.00 39 1010.3
20260904190045 70 250 1.0 7.0 0.00 0.00 0.00 40 1010.4
20260904184542 70 288 2.0 8.0 0.00 0.00 0.00 38 1010.3
20260904183106 70 259 3.0 7.0 0.00 0.00 0.00 39 1010.4
20260904181559 71 303 2.0 7.0 0.00 0.00 0.00 38 1010.3
20260904180043 71 281 2.0 7.0 0.00 0.00 0.00 38 1010.3
20260904174546 72 333 1.0 9.0 0.00 0.00 0.00 37 1010.4
20260904173043 74 352 1.0 7.0 0.00 0.00 0.00 36 1010.4
20260904171542 72 174 0.0 5.0 0.00 0.00 0.00 43 1010.4
20260904170041 70 305 1.0 5.0 0.00 0.00 0.00 41 1010.4
20260904164549 69 307 1.0 4.0 0.00 0.00 0.00 45 1010.5
20260904163044 68 0 0.0 0.0 0.00 0.00 0.00 52 1010.5
20260904161538 67 0 0.0 1.0 0.00 0.00 0.00 48 1010.4
20260904160042 66 0 0.0 0.0 0.00 0.00 0.00 53 1010.4
20260904154548 64 0 0.0 0.0 0.00 0.00 0.00 57 1010.3
20260904153043 63 0 0.0 0.0 0.00 0.00 0.00 57 1010.3
20260904151542 62 0 0.0 0.0 0.00 0.00 0.00 56 1010.2
20260904150043 60 0 0.0 0.0 0.00 0.00 0.00 58 1010.1
20260904144544 59 0 0.0 1.0 0.00 0.00 0.00 62 1010.0
20260904143050 58 0 0.0 0.0 0.00 0.00 0.00 61 1009.9
20260904141543 58 0 0.0 0.0 0.00 0.00 0.00 60 1009.8
20260904140047 59 120 0.0 2.0 0.00 0.00 0.00 58 1009.6
20260904134547 59 0 0.0 2.0 0.00 0.00 0.00 56 1009.5
20260904133042 60 0 0.0 0.0 0.00 0.00 0.00 55 1009.4
20260904131540 61 0 0.0 1.0 0.00 0.00 0.00 53 1009.2
20260904130044 61 0 0.0 2.0 0.00 0.00 0.00 52 1009.0
20260904124542 61 0 0.0 2.0 0.00 0.00 0.00 53 1009.0
20260904123045 60 0 2.0 7.0 0.00 0.00 0.00 55 1008.8
20260904121544 60 0 0.0 0.0 0.00 0.00 0.00 55 1008.9
20260904120050 60 0 0.0 3.0 0.00 0.00 0.00 55 1008.8
20260904114544 60 0 0.0 1.0 0.00 0.00 0.00 54 1008.7
20260904113044 61 0 0.0 2.0 0.00 0.00 0.00 52 1008.7
20260904111555 62 0 0.0 5.0 0.00 0.00 0.00 50 1008.6
20260904110043 62 341 2.0 5.0 0.00 0.00 0.00 50 1008.5
20260904104551 62 280 0.0 6.0 0.00 0.00 0.00 49 1008.6
20260904103048 63 263 2.0 10.0 0.00 0.00 0.00 48 1008.4
20260904101544 63 297 6.0 11.0 0.00 0.00 0.00 47 1008.1
20260904100042 63 283 3.0 8.0 0.00 0.00 0.00 48 1008.3
20260904094541 63 281 3.0 9.0 0.00 0.00 0.00 49 1008.3
20260904093046 62 297 2.0 8.0 0.00 0.00 0.00 49 1008.5
20260904091543 62 0 1.0 7.0 0.00 0.00 0.00 49 1008.6
20260904090041 60 314 0.0 6.0 0.00 0.00 0.00 51 1008.8
20260904084544 60 0 1.0 3.0 0.00 0.00 0.00 52 1008.6
20260904083045 59 0 0.0 4.0 0.00 0.00 0.00 53 1008.8
20260904081542 57 0 0.0 4.0 0.00 0.00 0.00 55 1008.8
20260904080044 57 0 0.0 1.0 0.00 0.00 0.00 55 1009.0
20260904074547 59 0 0.0 1.0 0.00 0.00 0.00 53 1008.8
20260904073044 59 299 1.0 3.0 0.00 0.00 0.00 51 1008.6
20260904071554 60 0 0.0 3.0 0.00 0.00 0.00 49 1008.6
20260904070041 62 0 0.0 1.0 0.00 0.00 0.00 47 1008.3
20260904064546 62 0 1.0 5.0 0.00 0.00 0.00 47 1008.1
20260904063043 61 0 0.0 6.0 0.00 0.00 0.00 49 1008.1
20260904061548 61 0 0.0 3.0 0.00 0.00 0.00 49 1007.9
20260904060051 63 0 0.0 2.0 0.00 0.00 0.00 47 1007.7
20260904054544 64 272 2.0 8.0 0.00 0.00 0.00 46 1007.9
20260904053043 64 252 1.0 9.0 0.00 0.00 0.00 46 1007.9
20260904051542 64 274 3.0 11.0 0.00 0.00 0.00 46 1008.2
20260904050048 64 316 3.0 11.0 0.00 0.00 0.00 46 1008.2
20260904044545 65 309 5.0 12.0 0.00 0.00 0.00 46 1008.1
20260904043043 65 242 4.0 10.0 0.00 0.00 0.00 45 1008.1
20260904041542 65 300 5.0 11.0 0.00 0.00 0.00 45 1007.9
20260904040045 65 239 4.0 13.0 0.00 0.00 0.00 45 1008.0
20260904034542 66 264 5.0 14.0 0.00 0.00 0.00 44 1008.1
20260904033043 66 260 5.0 14.0 0.00 0.00 0.00 43 1007.8
20260904031540 66 0 5.0 10.0 0.00 0.00 0.00 43 1007.8
20260904030044 66 265 3.0 10.0 0.00 0.00 0.00 42 1007.6